TimeCDT,TemperatureF,Dew PointF,Humidity,Sea Level PressureIn,VisibilityMPH,Wind Direction,Wind SpeedMPH,Gust SpeedMPH,PrecipitationIn,Events,Conditions,WindDirDegrees,DateUTC
12:15 AM,64.4,55.4,73,30.14,10.0,ENE,12.7,-,N/A,,Clear,60,2013-06-13 05:15:00
12:35 AM,62.6,55.4,77,30.13,10.0,ENE,11.5,-,N/A,,Clear,70,2013-06-13 05:35:00
12:55 AM,62.6,55.4,77,30.14,10.0,ENE,12.7,-,N/A,,Clear,70,2013-06-13 05:55:00
1:15 AM,62.6,55.4,77,30.15,10.0,ENE,11.5,-,N/A,,Clear,60,2013-06-13 06:15:00
1:35 AM,60.8,55.4,82,30.14,10.0,ENE,10.4,-,N/A,,Clear,60,2013-06-13 06:35:00
1:55 AM,60.8,55.4,82,30.13,10.0,ENE,11.5,-,N/A,,Clear,70,2013-06-13 06:55:00
2:15 AM,60.8,53.6,77,30.14,10.0,ENE,13.8,-,N/A,,Clear,70,2013-06-13 07:15:00
2:35 AM,60.8,53.6,77,30.14,10.0,ENE,15.0,-,N/A,,Clear,70,2013-06-13 07:35:00
2:55 AM,60.8,53.6,77,30.13,10.0,East,11.5,-,N/A,,Clear,80,2013-06-13 07:55:00
3:15 AM,59.0,53.6,82,30.13,10.0,East,10.4,-,N/A,,Clear,80,2013-06-13 08:15:00
3:35 AM,59.0,53.6,82,30.14,10.0,ENE,10.4,-,N/A,,Clear,70,2013-06-13 08:35:00
3:55 AM,59.0,53.6,82,30.14,10.0,ENE,10.4,-,N/A,,Clear,70,2013-06-13 08:55:00
4:15 AM,59.0,53.6,82,30.14,10.0,East,10.4,-,N/A,,Clear,80,2013-06-13 09:15:00
4:35 AM,57.2,53.6,88,30.14,10.0,East,10.4,-,N/A,,Clear,80,2013-06-13 09:35:00
4:55 AM,57.2,53.6,88,30.13,10.0,East,10.4,-,N/A,,Clear,90,2013-06-13 09:55:00
5:15 AM,55.4,53.6,94,30.14,10.0,East,9.2,-,N/A,,Clear,90,2013-06-13 10:15:00
5:35 AM,55.4,53.6,94,30.15,10.0,East,8.1,-,N/A,,Clear,100,2013-06-13 10:35:00
5:55 AM,55.4,53.6,94,30.15,10.0,East,8.1,-,N/A,,Clear,100,2013-06-13 10:55:00
6:15 AM,55.4,53.6,94,30.14,10.0,East,10.4,-,N/A,,Clear,100,2013-06-13 11:15:00
6:35 AM,55.4,53.6,94,30.14,10.0,East,11.5,-,N/A,,Clear,90,2013-06-13 11:35:00
6:55 AM,55.4,53.6,94,30.14,10.0,East,12.7,-,N/A,,Clear,100,2013-06-13 11:55:00
7:15 AM,55.4,53.6,94,30.14,10.0,East,15.0,-,N/A,,Clear,100,2013-06-13 12:15:00
7:35 AM,55.4,53.6,94,30.14,10.0,East,15.0,20.7,N/A,,Clear,100,2013-06-13 12:35:00
7:55 AM,57.2,53.6,88,30.14,10.0,East,20.7,25.3,N/A,,Clear,100,2013-06-13 12:55:00
8:15 AM,57.2,51.8,82,30.14,10.0,ESE,18.4,24.2,N/A,,Clear,110,2013-06-13 13:15:00
8:35 AM,59.0,53.6,82,30.15,10.0,ESE,19.6,24.2,N/A,,Clear,110,2013-06-13 13:35:00
8:55 AM,60.8,51.8,72,30.16,10.0,ESE,18.4,-,N/A,,Clear,110,2013-06-13 13:55:00
9:15 AM,62.6,53.6,72,30.17,10.0,ESE,17.3,-,N/A,,Clear,110,2013-06-13 14:15:00
9:35 AM,62.6,53.6,72,30.17,10.0,East,16.1,-,N/A,,Clear,100,2013-06-13 14:35:00
9:55 AM,64.4,53.6,68,30.18,10.0,East,15.0,19.6,N/A,,Clear,100,2013-06-13 14:55:00
10:15 AM,64.4,53.6,68,30.17,10.0,ESE,9.2,18.4,N/A,,Clear,110,2013-06-13 15:15:00
10:35 AM,66.2,55.4,68,30.16,10.0,SE,8.1,18.4,N/A,,Clear,130,2013-06-13 15:35:00
10:55 AM,68.0,55.4,64,30.15,10.0,SE,13.8,21.9,N/A,,Clear,130,2013-06-13 15:55:00
11:15 AM,69.8,55.4,60,30.15,10.0,SE,10.4,16.1,N/A,,Clear,130,2013-06-13 16:15:00
11:35 AM,69.8,55.4,60,30.15,10.0,SE,10.4,-,N/A,,Clear,140,2013-06-13 16:35:00
11:55 AM,71.6,55.4,57,30.15,10.0,SE,13.8,18.4,N/A,,Clear,130,2013-06-13 16:55:00
12:15 PM,71.6,57.2,60,30.14,10.0,ESE,12.7,20.7,N/A,,Clear,120,2013-06-13 17:15:00
12:35 PM,73.4,57.2,57,30.13,10.0,ESE,13.8,20.7,N/A,,Clear,110,2013-06-13 17:35:00
12:55 PM,73.4,59.0,61,30.12,10.0,SE,12.7,17.3,N/A,,Clear,130,2013-06-13 17:55:00
1:15 PM,77.0,59.0,54,30.11,10.0,SSE,12.7,19.6,N/A,,Clear,160,2013-06-13 18:15:00
1:35 PM,77.0,59.0,54,30.10,10.0,SE,15.0,18.4,N/A,,Clear,130,2013-06-13 18:35:00
1:55 PM,78.8,59.0,51,30.09,10.0,SSE,15.0,24.2,N/A,,Clear,150,2013-06-13 18:55:00
2:15 PM,78.8,59.0,51,30.08,10.0,SSE,13.8,18.4,N/A,,Clear,150,2013-06-13 19:15:00
2:35 PM,80.6,59.0,48,30.07,10.0,SE,10.4,18.4,N/A,,Clear,140,2013-06-13 19:35:00
2:55 PM,82.4,60.8,48,30.07,10.0,SE,13.8,19.6,N/A,,Clear,130,2013-06-13 19:55:00
3:15 PM,82.4,60.8,48,30.05,10.0,SE,11.5,19.6,N/A,,Clear,130,2013-06-13 20:15:00
3:35 PM,84.2,60.8,45,30.04,10.0,SE,13.8,21.9,N/A,,Clear,130,2013-06-13 20:35:00
3:55 PM,86.0,60.8,43,30.03,10.0,SSE,15.0,23.0,N/A,,Clear,150,2013-06-13 20:55:00
4:15 PM,86.0,60.8,43,30.01,10.0,SE,12.7,23.0,N/A,,Clear,140,2013-06-13 21:15:00
4:35 PM,87.8,60.8,40,30.00,10.0,ESE,10.4,20.7,N/A,,Clear,120,2013-06-13 21:35:00
4:55 PM,89.6,62.6,40,29.98,10.0,SE,20.7,-,N/A,,Clear,140,2013-06-13 21:55:00
5:15 PM,89.6,62.6,40,29.97,10.0,SE,16.1,24.2,N/A,,Clear,130,2013-06-13 22:15:00
5:35 PM,89.6,62.6,40,29.96,10.0,ESE,18.4,24.2,N/A,,Clear,120,2013-06-13 22:35:00
5:55 PM,89.6,62.6,40,29.95,10.0,ESE,19.6,25.3,N/A,,Clear,110,2013-06-13 22:55:00
6:15 PM,87.8,62.6,43,29.95,10.0,ESE,20.7,25.3,N/A,,Clear,110,2013-06-13 23:15:00
6:35 PM,87.8,62.6,43,29.95,10.0,ESE,18.4,24.2,N/A,,Clear,110,2013-06-13 23:35:00
6:55 PM,86.0,62.6,45,29.93,10.0,East,13.8,-,N/A,,Clear,90,2013-06-13 23:55:00
7:15 PM,86.0,62.6,45,29.93,10.0,East,17.3,-,N/A,,Clear,100,2013-06-14 00:15:00
7:35 PM,86.0,62.6,45,29.93,10.0,East,15.0,-,N/A,,Clear,100,2013-06-14 00:35:00
7:55 PM,87.8,62.6,43,29.94,10.0,SE,13.8,-,N/A,,Clear,140,2013-06-14 00:55:00
8:15 PM,87.8,64.4,46,29.99,10.0,WSW,16.1,23.0,N/A,,Scattered Clouds,240,2013-06-14 01:15:00
8:35 PM,82.4,53.6,37,30.01,4.0,NW,4.6,10.4,N/A,,Haze,320,2013-06-14 01:35:00
8:55 PM,78.8,55.4,44,30.00,7.0,North,21.9,27.6,N/A,Rain,Light Rain,360,2013-06-14 01:55:00
9:15 PM,71.6,59.0,64,30.01,10.0,NNE,18.4,26.5,N/A,,Mostly Cloudy,20,2013-06-14 02:15:00
9:35 PM,69.8,60.8,73,30.01,10.0,NE,18.4,-,N/A,,Overcast,50,2013-06-14 02:35:00
9:55 PM,71.6,59.0,64,30.01,10.0,ENE,18.4,23.0,N/A,,Overcast,60,2013-06-14 02:55:00
10:15 PM,71.6,60.8,69,30.00,10.0,East,17.3,-,N/A,,Scattered Clouds,90,2013-06-14 03:15:00
10:35 PM,71.6,62.6,73,30.00,10.0,ENE,18.4,21.9,N/A,,Scattered Clouds,60,2013-06-14 03:35:00
10:55 PM,71.6,62.6,73,30.09,10.0,NW,19.6,26.5,N/A,,Mostly Cloudy,310,2013-06-14 03:55:00
11:15 PM,69.8,62.6,78,30.03,10.0,ENE,9.2,-,N/A,Rain,Light Rain,70,2013-06-14 04:15:00
11:35 PM,71.6,62.6,73,30.03,10.0,ENE,16.1,24.2,N/A,,Scattered Clouds,60,2013-06-14 04:35:00
11:55 PM,73.4,64.4,73,30.00,10.0,East,19.6,-,N/A,,Clear,80,2013-06-14 04:55:00